Regional Weather Roundup
Issued by NWS

Home | Current Version | Previous Version | Graphics & Text | Print | Product List | Glossary On
Versions: 1 2 3 4 5 6 7 8 9 10 11 12 13 14 15 16 17 18 19 20 21 22 23 24 25 26 27 28 29 30 31 32 33 34 35 36 37 38 39 40 41 42 43 44 45 46 47 48 49 50
712
ASUS45 KSLC 111910
RWRUT

UTAH REGIONAL WEATHER ROUNDUP
NATIONAL WEATHER SERVICE SALT LAKE CITY UT
1200 PM MST MON DEC 11 2017

UTZ001>011-023>025-112000-

NORTHERN UTAH

CITY           SKY/WX    TMP DP  RH WIND       PRES   REMARKS
BRIGHAM CITY   MOSUNNY   30  22  73 CALM      30.64F
DUGWAY         MOSUNNY   29  21  73 VRB1      30.61
HILL AFB       MOSUNNY   33  15  48 CALM      30.59F
LOGAN          CLOUDY    23  16  74 CALM      30.64
OGDEN          MOSUNNY   32  21  64 N3        30.61
SALT LAKE CITY SNOW      28  25  88 NE3       30.63F VSB 1/2
TOOELE VALLEY  FOG       25  25 100 CALM      30.64F VSB 1
WENDOVER       SUNNY     33  18  53 E5        30.64F WCI  29
HEBER CITY       N/A     34  12  40 CALM      30.55F
WEST JORDAN    MOSUNNY   29  24  81 CALM      30.61F

$$

UTZ011>015-024>027-112000-

CENTRAL/NORTHEAST UTAH

CITY           SKY/WX    TMP DP  RH WIND       PRES   REMARKS
PROVO AIRPORT  SUNNY     32  20  61 W6        30.61F WCI  26
MOAB/CANYONLAN SUNNY     39   6  25 CALM      30.52
DELTA          SUNNY     30  14  51 CALM      30.59F
PRICE          SUNNY     41  -1  17 S3        30.49
RICHFIELD      SUNNY     34   1  25 CALM      30.55F
ROOSEVELT      SUNNY     32   9  37 CALM      30.59F
VERNAL         SUNNY     32  10  40 SE6       30.56  WCI  26

$$

UTZ013>016-019>022-027-112000-

SOUTHERN UTAH

CITY           SKY/WX    TMP DP  RH WIND       PRES   REMARKS
BRYCE CANYON   SUNNY     47 -16   6 NE3       30.53
CEDAR CITY     SUNNY     37   5  26 CALM      30.52
MILFORD        SUNNY     34  16  47 N7        30.56  WCI  28
ST GEORGE      CLEAR     44   5  20 CALM      30.48F
HANKSVILLE     SUNNY     34   5  29 CALM      30.57F
KANAB          SUNNY     57  -9   6 NE10      30.49F
BLANDING         N/A     41   3  20 S5        30.56F

$$

REGIONAL REPORTS     COLORADO/ARIZONA

CITY           SKY/WX    TMP DP  RH WIND       PRES   REMARKS
CRAIG, CO      SUNNY     27  12  53 S3        30.54
GRAND JUNCTION SUNNY     39   4  23 CALM      30.53
RIFLE, CO      SUNNY     40   4  22 CALM      30.54
MONTROSE, CO   SUNNY     42  -1  16 NW5       30.53
CORTEZ, CO     SUNNY     41   1  18 SW8       30.47
COLORADO CITY    N/A     50   0  12 CALM      30.48F
PAGE, AZ       SUNNY     39  15  37 VRB3      30.52
GRAND CANYON   SUNNY     53 -18   5 NE12      30.47F
KINGMAN, AZ    MOSUNNY   57   3  11 N12       30.37
FLAGSTAFF, AZ  MOSUNNY   48 -10   8 NE9       30.47F

$$

REGIONAL REPORTS    NEVADA/IDAHO/WYOMING

CITY           SKY/WX    TMP DP  RH WIND       PRES   REMARKS
LAS VEGAS, NV  MOSUNNY   58   1  10 NE3       30.39F
ELY, NY        SUNNY     41  -1  17 CALM      30.54
ELKO, NV       MOSUNNY   29  18  63 CALM      30.57F
POCATELLO, ID  CLOUDY    28  19  69 CALM      30.60
BURLEY, ID     SUNNY     27  22  81 CALM      30.58F
FORT BRIDGER,    N/A     51   5  15 W8        30.55F
EVANSTON, WY   SUNNY     41  11  29 CALM      30.55
ROCK SPRINGS,  SUNNY     43   3  19 SW9       30.50F

$$




USA.gov is the U.S. government's official web portal to all federal, state and local government web resources and services.